Flag for Antigua and Barbuda Weather past 2 weeks in Saint John's, Antigua and Barbuda

Now
82 °F

Scattered clouds.


Feels Like: 86 °F
Forecast: 74 / 83 °F
Wind: 12 mph from East

Location: Vc Bird International Antigua Airport


UV Index: 10 (Very high)

Visibility: N/A


Pressure: 29.98 "Hg

Humidity: 66%

Dew point: 70 °F

Location of Saint John'sLocation

Historic Weather in Saint John's

°F

Saint John's temperature yesterday

Maximum temperature yesterday: 84 °F (at 12:00 PM)
Minimum temperature yesterday: 73 °F (at 5:00 AM)
Average temperature yesterday: 79 °F

Past Weeks' High & Low Weather Summary

 TemperatureHumidityPressure
High84 °F (Apr 3, 1:00 PM)94% (Apr 13, 3:00 AM)30.12 "Hg (Apr 13, 3:00 AM)
Low70 °F (Apr 3, 5:00 AM)55% (Apr 10, 10:00 AM)29.89 "Hg (Apr 15, 3:00 PM)
Average78 °F72%30.02 "Hg
* Reported Apr 1 11:00 AM — Apr 16 11:00 AM, Saint John's, Weather by CustomWeather, © 2014

Note: Actual official high and low records may vary slightly from our data, if they occured in-between our weather recording intervals... More about our weather records

Advertising

Historic Weather Conditions — Data for Previous 24 hours

 ConditionsComfort  
Time TempWeatherWind HumidityBarometerVisibility
11:00 AM
Apr 16
82 °FScattered clouds.12 mph66%29.98 "HgN/A
10:00 AM82 °FScattered clouds.10 mph66%29.98 "HgN/A
9:00 AM82 °FScattered clouds.8 mph66%29.98 "HgN/A
8:00 AM81 °FScattered clouds.8 mph70%29.98 "HgN/A
7:00 AM77 °FScattered clouds.3 mph79%29.95 "HgN/A
6:00 AM75 °FPassing clouds.3 mph78%29.95 "HgN/A
5:00 AM75 °FPassing clouds.3 mph83%29.92 "HgN/A
4:00 AM75 °FPassing clouds.1 mph83%29.92 "HgN/A
3:00 AM75 °FPassing clouds.2 mph83%29.92 "HgN/A
2:00 AM75 °FPassing clouds.2 mph83%29.95 "HgN/A
1:00 AM77 °FPassing clouds.5 mph79%29.95 "HgN/A
12:00 AM77 °FPassing clouds.5 mph79%29.95 "HgN/A
11:00 PM
Apr 15
77 °FPassing clouds.6 mph79%29.98 "HgN/A
10:00 PM77 °FPassing clouds.5 mph74%29.98 "HgN/A
9:00 PM77 °FPassing clouds.6 mph79%29.95 "HgN/A
6:00 PM79 °FPassing clouds.8 mph70%29.92 "HgN/A
5:00 PM81 °FScattered clouds.7 mph66%29.89 "HgN/A
4:00 PM82 °FScattered clouds.8 mph66%29.89 "HgN/A
3:00 PM82 °FScattered clouds.10 mph66%29.89 "HgN/A
2:00 PM82 °FScattered clouds.12 mph66%29.92 "HgN/A
1:00 PM84 °FScattered clouds.13 mph62%29.92 "HgN/A
12:00 PM84 °FPassing clouds.12 mph62%29.95 "HgN/A
Weather by CustomWeather, © 2014

See weather overview